Weather History for Keene, NH

Change the Weather History Date:

Saturday, January 5, 2013

  Actual Average Record
Temperature  
Mean Temperature 27 °F -  
Max Temperature 37 °F 32 °F 57 °F (2007)
Min Temperature 17 °F 12 °F -18 °F (1935)
Degree Days  
Heating Degree Days 38    
Moisture  
Dew Point 17 °F    
Average Humidity 56    
Maximum Humidity 86    
Minimum Humidity 36    
Precipitation  
Precipitation 0.00 in - - ()
Sea Level Pressure  
Sea Level Pressure 30.07 in    
Wind  
Wind Speed 8 mph (WNW)    
Max Wind Speed 14 mph    
Max Gust Speed 22 mph    
Visibility 10 miles    
Events      
Averages and records for this station are not official NWS values.
T = Trace of Precipitation, MM = Missing Value Source: NWS Daily Summary

Daily Weather History Graph

Daily Weather History Graph

Search for Another Location

Airport:

Trip Planner

Search our weather history database for the weather conditions in past years. The results will help you decide how hot, cold, wet, or windy it might be!

Date:

Astronomy

Jan. 05, 2013 Rise Set
Actual Time 7:20 AM EST 4:29 PM EST
Civil Twilight 6:48 AM EST 5:01 PM EST
Nautical Twilight 6:12 AM EST 5:36 PM EST
Astronomical Twilight 5:38 AM EST 6:11 PM EST
Moon 12:18 AM EST (1/5) 11:22 AM EST (1/5)
Length of Visible Light 10h 13m
Length of Day
9h 09m
Last Quarter, 44% of the Moon is Illuminated
Jan 5
Last Quarter
Jan 11
New
Jan 18
First Quarter
Jan 26
Full
Feb 3
Last Quarter

Hourly Weather History & Observations

Time (EST) Temp. Windchill Dew Point Humidity Pressure Visibility Wind Dir Wind Speed Gust Speed Precip Events Conditions
12:15 AM 33.8 °F 24.3 °F 17.6 °F 52% 29.83 in 10.0 mi WNW 13.8 mph 21.9 mph N/A   Overcast
12:35 AM 33.8 °F 25.8 °F 19.4 °F 56% 29.83 in 10.0 mi West 10.4 mph 16.1 mph N/A   Overcast
12:55 AM 33.8 °F 26.4 °F 19.4 °F 56% 29.84 in 10.0 mi West 9.2 mph - N/A   Overcast
1:15 AM 33.8 °F 24.8 °F 19.4 °F 56% 29.84 in 10.0 mi West 12.7 mph 18.4 mph N/A   Overcast
1:35 AM 33.8 °F 26.4 °F 19.4 °F 56% 29.85 in 10.0 mi West 9.2 mph - N/A   Overcast
1:55 AM 33.8 °F 25.8 °F 19.4 °F 56% 29.86 in 10.0 mi West 10.4 mph - N/A   Overcast
2:16 AM 33.8 °F 28.6 °F 19.4 °F 56% 29.87 in 10.0 mi West 5.8 mph 17.3 mph N/A   Overcast
2:35 AM 33.8 °F 26.4 °F 21.2 °F 60% 29.87 in 10.0 mi West 9.2 mph 17.3 mph N/A   Mostly Cloudy
2:55 AM 33.8 °F 27.7 °F 21.2 °F 60% 29.87 in 10.0 mi West 6.9 mph - N/A   Partly Cloudy
3:35 AM 33.8 °F 27.7 °F 21.2 °F 60% 29.88 in 10.0 mi WSW 6.9 mph - N/A   Overcast
3:55 AM 33.8 °F 27.7 °F 21.2 °F 60% 29.89 in 10.0 mi West 6.9 mph - N/A   Overcast
4:15 AM 33.8 °F 27.7 °F 21.2 °F 60% 29.89 in 10.0 mi WNW 6.9 mph - N/A   Mostly Cloudy
4:35 AM 33.8 °F 28.6 °F 21.2 °F 60% 29.90 in 10.0 mi WNW 5.8 mph - N/A   Mostly Cloudy
5:15 AM 33.8 °F 27.7 °F 21.2 °F 60% 29.92 in 10.0 mi WSW 6.9 mph - N/A   Mostly Cloudy
6:15 AM 33.8 °F 28.6 °F 21.2 °F 60% 29.96 in 10.0 mi WSW 5.8 mph - N/A   Overcast
7:15 AM 33.8 °F - 19.4 °F 56% 30.00 in 10.0 mi Calm Calm - N/A   Mostly Cloudy
7:35 AM 33.8 °F 29.6 °F 19.4 °F 56% 30.01 in 10.0 mi WSW 4.6 mph - N/A   Scattered Clouds
7:55 AM 33.8 °F 30.8 °F 19.4 °F 56% 30.03 in 10.0 mi West 3.5 mph - N/A   Clear
8:15 AM 33.8 °F 29.6 °F 19.4 °F 56% 30.04 in 10.0 mi West 4.6 mph - N/A   Partly Cloudy
8:35 AM 35.6 °F 30.7 °F 19.4 °F 52% 30.05 in 10.0 mi WNW 5.8 mph - N/A   Mostly Cloudy
8:55 AM 35.6 °F 31.7 °F 19.4 °F 52% 30.06 in 10.0 mi WNW 4.6 mph - N/A   Overcast
9:15 AM 35.6 °F 29.2 °F 19.4 °F 52% 30.09 in 10.0 mi NW 8.1 mph - N/A   Overcast
9:55 AM 35.6 °F 28.0 °F 17.6 °F 48% 30.12 in 10.0 mi North 10.4 mph - N/A   Overcast
10:15 AM 37.4 °F 29.3 °F 15.8 °F 41% 30.12 in 10.0 mi NW 12.7 mph 19.6 mph N/A   Mostly Cloudy
10:55 AM 37.4 °F 29.8 °F 15.8 °F 41% 30.13 in 10.0 mi NW 11.5 mph 20.7 mph N/A   Mostly Cloudy
11:15 AM 37.4 °F 29.8 °F 14.0 °F 38% 30.14 in 10.0 mi WNW 11.5 mph 21.9 mph N/A   Mostly Cloudy
11:55 AM 37.4 °F 31.4 °F 14.0 °F 38% 30.15 in 10.0 mi NW 8.1 mph 16.1 mph N/A   Clear
12:15 PM 37.4 °F 29.8 °F 12.2 °F 36% 30.15 in 10.0 mi NW 11.5 mph 17.3 mph N/A   Clear
12:55 PM 37.4 °F 29.3 °F 14.0 °F 38% 30.16 in 10.0 mi West 12.7 mph - N/A   Clear
1:15 PM 37.4 °F 32.1 °F 15.8 °F 41% 30.15 in 10.0 mi WNW 6.9 mph - N/A   Clear
1:35 PM 37.4 °F 29.8 °F 15.8 °F 41% 30.16 in 10.0 mi NW 11.5 mph 17.3 mph N/A   Clear
1:55 PM 37.4 °F 31.4 °F 15.8 °F 41% 30.16 in 10.0 mi West 8.1 mph - N/A   Clear
2:15 PM 37.4 °F 30.3 °F 14.0 °F 38% 30.15 in 10.0 mi WNW 10.4 mph - N/A   Clear
2:35 PM 35.6 °F 27.1 °F 14.0 °F 41% 30.15 in 10.0 mi NW 12.7 mph - N/A   Clear
2:55 PM 35.6 °F 29.2 °F 14.0 °F 41% 30.15 in 10.0 mi NNW 8.1 mph - N/A   Clear
3:15 PM 35.6 °F 30.7 °F 15.8 °F 44% 30.16 in 10.0 mi NNW 5.8 mph - N/A   Clear
3:35 PM 35.6 °F 29.9 °F 14.0 °F 41% 30.15 in 10.0 mi NNW 6.9 mph - N/A   Clear
4:15 PM 35.6 °F 31.7 °F 14.0 °F 41% 30.18 in 10.0 mi NW 4.6 mph - N/A   Clear
5:15 PM 30.2 °F - 12.2 °F 47% 30.19 in 10.0 mi Calm Calm - N/A   Clear
6:15 PM 26.6 °F - 15.8 °F 64% 30.22 in 10.0 mi Calm Calm - N/A   Clear
6:35 PM 26.6 °F - 14.0 °F 59% 30.24 in 10.0 mi Calm Calm - N/A   Clear
6:55 PM 24.8 °F - 15.8 °F 69% 30.23 in 10.0 mi Calm Calm - N/A   Clear
7:15 PM 23.0 °F - 14.0 °F 68% 30.23 in 10.0 mi Calm Calm - N/A   Clear
7:35 PM 23.0 °F - 15.8 °F 74% 30.23 in 10.0 mi Calm Calm - N/A   Clear
7:55 PM 21.2 °F - 12.2 °F 68% 30.22 in 10.0 mi Calm Calm - N/A   Clear
9:15 PM 19.4 °F - 15.8 °F 86% 30.22 in 10.0 mi Calm Calm - N/A   Clear
9:35 PM 19.4 °F - 12.2 °F 74% 30.21 in 10.0 mi Calm Calm - N/A   Clear
9:55 PM 19.4 °F - 14.0 °F 80% 30.21 in 10.0 mi Calm Calm - N/A   Clear
10:15 PM 17.6 °F - 14.0 °F 86% 30.21 in 10.0 mi Calm Calm - N/A   Clear
10:55 PM 17.6 °F 12.3 °F 12.2 °F 79% 30.20 in 10.0 mi South 3.5 mph - N/A   Clear
11:55 PM 17.6 °F - 14.0 °F 86% 30.18 in 10.0 mi Calm Calm - N/A   Clear